DW0602 Weather Reports


time (UTC)temp
C
wind
direction
speed
KPH
gust
KPH
rain 1hr
cm
rain 24hr
cm
rain mn
cm
humidity
%
barometer
mb
20260906220127 28 88 8.0 20.9 0.00 0.00 0.00 35 1019.1
20260906220033 28 60 6.4 24.1 0.00 0.00 0.00 35 1019.7
20260906215622 28 134 9.7 20.9 0.00 0.00 0.00 34 1019.2
20260906214610 28 32 9.7 25.7 0.00 0.00 0.00 35 1019.5
20260906214536 28 109 11.3 27.4 0.00 0.00 0.00 35 1020.2
20260906214104 28 144 8.0 17.7 0.00 0.00 0.00 35 1019.6
20260906213557 29 113 8.0 22.5 0.00 0.00 0.00 35 1019.6
20260906213053 29 126 8.0 22.5 0.00 0.00 0.00 33 1019.7
20260906213030 29 136 9.7 25.7 0.00 0.00 0.00 33 1020.3
20260906212546 29 150 8.0 22.5 0.00 0.00 0.00 35 1019.7
20260906212040 29 122 6.4 22.5 0.00 0.00 0.00 33 1019.7
20260906211535 28 90 8.0 19.3 0.00 0.00 0.00 37 1019.7
20260906211533 28 123 3.2 20.9 0.00 0.00 0.00 37 1020.4
20260906211029 29 115 8.0 20.9 0.00 0.00 0.00 35 1019.8
20260906210017 29 8 8.0 20.9 0.00 0.00 0.00 37 1019.9
20260906205512 29 156 8.0 17.7 0.00 0.00 0.00 37 1020.1
20260906205005 29 152 8.0 19.3 0.00 0.00 0.00 37 1020.1
20260906204524 29 193 6.4 22.5 0.00 0.00 0.00 34 1020.9
20260906204459 29 157 8.0 19.3 0.00 0.00 0.00 35 1020.1
20260906203951 29 131 8.0 19.3 0.00 0.00 0.00 36 1020.1
20260906203446 29 150 8.0 17.7 0.00 0.00 0.00 39 1020.2
20260906203029 28 182 6.4 20.9 0.00 0.00 0.00 37 1020.9
20260906202940 28 158 9.7 20.9 0.00 0.00 0.00 37 1020.3
20260906202433 28 126 9.7 20.9 0.00 0.00 0.00 38 1020.2
20260906201928 28 70 8.0 22.5 0.00 0.00 0.00 39 1020.2
20260906201538 28 71 14.5 24.1 0.00 0.00 0.00 37 1021.1
20260906200925 29 105 6.4 19.3 0.00 0.00 0.00 38 1020.2
20260906200426 29 86 6.4 17.7 0.00 0.00 0.00 38 1020.2
20260906200018 28 84 1.6 19.3 0.00 0.00 0.00 38 1021.1
20260906195926 28 130 8.0 17.7 0.00 0.00 0.00 38 1020.3
20260906195426 28 137 6.4 16.1 0.00 0.00 0.00 38 1020.4
20260906194534 28 123 4.8 22.5 0.00 0.00 0.00 38 1021.3
20260906194424 28 68 8.0 20.9 0.00 0.00 0.00 38 1020.6
20260906193926 28 131 8.0 20.9 0.00 0.00 0.00 37 1020.7
20260906193026 28 148 6.4 17.7 0.00 0.00 0.00 35 1021.4
20260906192926 29 145 6.4 16.1 0.00 0.00 0.00 35 1020.7
20260906192427 28 165 8.0 19.3 0.00 0.00 0.00 37 1020.7
20260906191924 28 72 6.4 19.3 0.00 0.00 0.00 36 1020.7
20260906191529 28 123 3.2 17.7 0.00 0.00 0.00 36 1021.5
20260906191424 28 150 6.4 14.5 0.00 0.00 0.00 37 1020.7
20260906190922 28 150 8.0 19.3 0.00 0.00 0.00 36 1020.9
20260906190422 28 101 6.4 19.3 0.00 0.00 0.00 35 1021.0
20260906190033 28 96 9.7 20.9 0.00 0.00 0.00 36 1021.8
20260906185923 28 86 6.4 14.5 0.00 0.00 0.00 36 1021.0
20260906184916 28 82 6.4 19.3 0.00 0.00 0.00 33 1021.3
20260906184528 28 92 4.8 24.1 0.00 0.00 0.00 35 1022.2
20260906184410 28 115 6.4 22.5 0.00 0.00 0.00 36 1021.4
20260906183358 28 29 3.2 11.3 0.00 0.00 0.00 33 1021.7
20260906183033 28 63 3.2 14.5 0.00 0.00 0.00 34 1022.5
20260906182856 28 162 3.2 12.9 0.00 0.00 0.00 35 1021.7
20260906182355 28 153 4.8 14.5 0.00 0.00 0.00 35 1021.8
20260906181858 28 181 6.4 14.5 0.00 0.00 0.00 37 1021.8
20260906181551 27 104 8.0 16.1 0.00 0.00 0.00 35 1022.6
20260906181357 28 124 4.8 11.3 0.00 0.00 0.00 36 1021.9
20260906180855 28 70 4.8 11.3 0.00 0.00 0.00 37 1022.1
20260906180032 28 106 4.8 12.9 0.00 0.00 0.00 36 1022.9
20260906175855 28 67 4.8 11.3 0.00 0.00 0.00 36 1022.3
20260906175357 28 120 3.2 9.7 0.00 0.00 0.00 35 1022.3
20260906174533 27 119 4.8 16.1 0.00 0.00 0.00 37 1023.1
20260906174355 27 110 6.4 14.5 0.00 0.00 0.00 38 1022.4
20260906173854 27 53 3.2 12.9 0.00 0.00 0.00 38 1022.4
20260906173027 27 58 0.0 6.4 0.00 0.00 0.00 36 1023.2
20260906172855 27 68 1.6 6.4 0.00 0.00 0.00 36 1022.5
20260906172349 27 136 3.2 9.7 0.00 0.00 0.00 37 1022.7
20260906171849 27 160 4.8 14.5 0.00 0.00 0.00 36 1022.7
20260906171534 27 171 4.8 16.1 0.00 0.00 0.00 36 1023.5
20260906171350 27 150 4.8 14.5 0.00 0.00 0.00 39 1022.7
20260906170850 27 47 4.8 9.7 0.00 0.00 0.00 37 1022.7
20260906170351 27 88 4.8 9.7 0.00 0.00 0.00 35 1022.7
20260906170032 27 94 3.2 12.9 0.00 0.00 0.00 36 1023.6
20260906165851 27 91 4.8 11.3 0.00 0.00 0.00 37 1022.9
20260906165349 28 79 4.8 11.3 0.00 0.00 0.00 35 1022.9
20260906164850 28 117 3.2 11.3 0.00 0.00 0.00 36 1022.9
20260906164531 28 104 3.2 9.7 0.00 0.00 0.00 36 1023.6
20260906164350 28 52 0.0 6.4 0.00 0.00 0.00 36 1022.7
20260906163846 27 126 1.6 8.0 0.00 0.00 0.00 37 1022.9
20260906163040 27 118 3.2 9.7 0.00 0.00 0.00 35 1023.6
20260906162845 27 87 1.6 9.7 0.00 0.00 0.00 36 1022.9
20260906161845 26 84 4.8 17.7 0.00 0.00 0.00 36 1022.7
20260906161530 27 78 4.8 14.5 0.00 0.00 0.00 39 1023.5
20260906161345 27 108 3.2 8.0 0.00 0.00 0.00 38 1022.7
20260906160846 27 61 3.2 8.0 0.00 0.00 0.00 37 1022.9
20260906160344 27 158 3.2 19.3 0.00 0.00 0.00 34 1023.0
20260906160032 27 135 3.2 20.9 0.00 0.00 0.00 36 1023.6
20260906155341 27 72 1.6 8.0 0.00 0.00 0.00 36 1022.7
20260906154840 27 143 1.6 8.0 0.00 0.00 0.00 36 1022.7
20260906154531 27 123 0.0 9.7 0.00 0.00 0.00 34 1023.4
20260906154341 27 146 1.6 8.0 0.00 0.00 0.00 36 1022.6
20260906153841 27 206 1.6 6.4 0.00 0.00 0.00 36 1022.7
20260906153340 26 155 3.2 9.7 0.00 0.00 0.00 37 1022.6
20260906153033 26 154 1.6 11.3 0.00 0.00 0.00 38 1023.5
20260906152842 26 151 3.2 9.7 0.00 0.00 0.00 38 1022.7
20260906152341 26 147 1.6 6.4 0.00 0.00 0.00 38 1022.6
20260906151841 26 124 1.6 6.4 0.00 0.00 0.00 40 1022.6
20260906151536 25 186 0.0 4.8 0.00 0.00 0.00 37 1023.2
20260906151341 25 110 1.6 4.8 0.00 0.00 0.00 39 1022.6
20260906150839 25 121 1.6 6.4 0.00 0.00 0.00 40 1022.6
20260906150341 25 103 1.6 6.4 0.00 0.00 0.00 40 1022.6
20260906150032 24 282 0.0 3.2 0.00 0.00 0.00 40 1023.1
20260906144836 23 299 1.6 6.4 0.00 0.00 0.00 43 1022.5
20260906144515 23 272 1.6 6.4 0.00 0.00 0.00 43 1023.0
20260906144337 23 264 1.6 6.4 0.00 0.00 0.00 44 1022.5
20260906143835 23 305 0.0 4.8 0.00 0.00 0.00 44 1022.5
20260906143334 22 303 0.0 6.4 0.00 0.00 0.00 45 1022.5
20260906143012 22 302 0.0 11.3 0.00 0.00 0.00 45 1023.0
20260906142834 22 323 1.6 9.7 0.00 0.00 0.00 45 1022.4
20260906141834 22 254 0.0 6.4 0.00 0.00 0.00 46 1022.3
20260906141520 21 268 0.0 6.4 0.00 0.00 0.00 46 1022.9
20260906141333 22 282 0.0 6.4 0.00 0.00 0.00 47 1022.1
20260906140832 21 290 0.0 4.8 0.00 0.00 0.00 47 1022.3
20260906140334 21 285 0.0 3.2 0.00 0.00 0.00 47 1022.3
20260906140028 21 317 0.0 4.8 0.00 0.00 0.00 49 1022.9
20260906135834 21 314 0.0 4.8 0.00 0.00 0.00 50 1022.3
20260906135336 20 333 0.0 4.8 0.00 0.00 0.00 51 1022.3
20260906134828 20 306 0.0 4.8 0.00 0.00 0.00 52 1022.1
20260906134527 20 335 0.0 4.8 0.00 0.00 0.00 52 1022.7
20260906134322 20 343 0.0 4.8 0.00 0.00 0.00 54 1022.0
20260906133311 18 300 0.0 1.6 0.00 0.00 0.00 53 1022.1
20260906133008 18 298 0.0 1.6 0.00 0.00 0.00 54 1022.8
20260906132804 18 300 0.0 4.8 0.00 0.00 0.00 54 1022.1
20260906131748 17 323 0.0 4.8 0.00 0.00 0.00 57 1021.9
20260906131516 17 338 0.0 4.8 0.00 0.00 0.00 58 1022.5
20260906130736 16 313 1.6 4.8 0.00 0.00 0.00 61 1021.8
20260906130231 15 269 0.0 4.8 0.00 0.00 0.00 64 1021.8
20260906130026 15 304 0.0 4.8 0.00 0.00 0.00 65 1022.5
20260906125724 15 327 0.0 4.8 0.00 0.00 0.00 67 1021.9
20260906124527 13 345 0.0 0.0 0.00 0.00 0.00 72 1022.4
20260906124205 13 354 0.0 0.0 0.00 0.00 0.00 75 1021.8
20260906123659 13 359 0.0 0.0 0.00 0.00 0.00 81 1021.8
20260906123153 13 359 0.0 0.0 0.00 0.00 0.00 81 1021.8
20260906123033 12 355 0.0 0.0 0.00 0.00 0.00 80 1022.3
20260906122647 13 359 0.0 0.0 0.00 0.00 0.00 81 1021.8
20260906121634 13 359 0.0 0.0 0.00 0.00 0.00 81 1021.8
20260906121513 13 355 0.0 0.0 0.00 0.00 0.00 80 1022.3
20260906121128 13 359 0.0 0.0 0.00 0.00 0.00 81 1021.7
20260906120115 13 323 0.0 0.0 0.00 0.00 0.00 79 1021.8
20260906120019 13 318 0.0 0.0 0.00 0.00 0.00 79 1022.2
20260906115610 13 323 0.0 0.0 0.00 0.00 0.00 79 1021.7
20260906115104 13 323 0.0 0.0 0.00 0.00 0.00 78 1021.7
20260906114542 13 318 0.0 0.0 0.00 0.00 0.00 78 1022.2
20260906114054 14 323 0.0 0.0 0.00 0.00 0.00 79 1021.5
20260906113546 14 323 0.0 0.0 0.00 0.00 0.00 79 1021.4
20260906113040 14 323 0.0 0.0 0.00 0.00 0.00 80 1021.5
20260906113030 13 318 0.0 0.0 0.00 0.00 0.00 79 1022.2
20260906112028 14 323 0.0 0.0 0.00 0.00 0.00 79 1021.4
20260906111533 14 318 0.0 0.0 0.00 0.00 0.00 78 1022.0
20260906111523 14 323 0.0 0.0 0.00 0.00 0.00 78 1021.3
20260906110019 14 318 0.0 0.0 0.00 0.00 0.00 78 1021.9
20260906110004 15 323 0.0 0.0 0.00 0.00 0.00 79 1021.2
20260906105458 14 323 0.0 0.0 0.00 0.00 0.00 80 1021.2
20260906104527 14 318 0.0 0.0 0.00 0.00 0.00 78 1021.9
20260906104446 14 323 0.0 0.0 0.00 0.00 0.00 78 1021.2
20260906103940 15 323 0.0 0.0 0.00 0.00 0.00 77 1021.0
20260906103434 15 0 0.0 0.0 0.00 0.00 0.00 76 1021.2
20260906103028 15 360 0.0 0.0 0.00 0.00 0.00 75 1021.9
20260906102929 15 0 0.0 0.0 0.00 0.00 0.00 76 1021.2
20260906102422 15 0 0.0 0.0 0.00 0.00 0.00 75 1021.3
20260906101916 16 0 0.0 0.0 0.00 0.00 0.00 74 1021.2
20260906101531 16 360 0.0 0.0 0.00 0.00 0.00 73 1021.9
20260906101410 16 0 0.0 0.0 0.00 0.00 0.00 73 1021.3
20260906100904 16 323 0.0 0.0 0.00 0.00 0.00 72 1021.4
20260906100032 16 318 0.0 0.0 0.00 0.00 0.00 71 1022.2
20260906095346 16 323 0.0 0.0 0.00 0.00 0.00 71 1021.7
20260906094840 16 323 0.0 0.0 0.00 0.00 0.00 71 1021.7
20260906094536 16 318 0.0 0.0 0.00 0.00 0.00 70 1022.4
20260906093828 16 323 0.0 0.0 0.00 0.00 0.00 70 1021.5
20260906093028 16 57 0.0 3.2 0.00 0.00 0.00 70 1022.4
20260906092311 16 65 0.0 1.6 0.00 0.00 0.00 68 1021.7
20260906091804 17 332 0.0 1.6 0.00 0.00 0.00 67 1021.5
20260906091536 17 326 0.0 1.6 0.00 0.00 0.00 65 1022.2
20260906091258 17 332 0.0 1.6 0.00 0.00 0.00 65 1021.5
20260906090752 17 332 0.0 0.0 0.00 0.00 0.00 65 1021.4
20260906090246 17 332 0.0 0.0 0.00 0.00 0.00 66 1021.4
20260906090032 17 326 0.0 0.0 0.00 0.00 0.00 66 1022.1
20260906085740 17 332 0.0 1.6 0.00 0.00 0.00 66 1021.4
20260906085234 17 332 0.0 1.6 0.00 0.00 0.00 63 1021.4
20260906084730 17 332 0.0 1.6 0.00 0.00 0.00 64 1021.3
20260906084536 17 336 0.0 1.6 0.00 0.00 0.00 64 1021.9
20260906084222 17 357 0.0 1.6 0.00 0.00 0.00 67 1021.3
20260906083717 17 357 0.0 0.0 0.00 0.00 0.00 68 1021.3
20260906083209 17 359 0.0 1.6 0.00 0.00 0.00 69 1021.3
20260906083033 17 355 0.0 1.6 0.00 0.00 0.00 70 1021.9
20260906082705 17 331 0.0 1.6 0.00 0.00 0.00 69 1021.3
20260906082200 17 359 0.0 0.0 0.00 0.00 0.00 71 1021.3
20260906081652 17 359 0.0 0.0 0.00 0.00 0.00 72 1021.4
20260906081538 17 355 0.0 0.0 0.00 0.00 0.00 72 1021.9
20260906081148 17 359 0.0 0.0 0.00 0.00 0.00 72 1021.3
20260906080134 17 359 0.0 4.8 0.00 0.00 0.00 72 1021.4
20260906080035 17 355 0.0 1.6 0.00 0.00 0.00 71 1022.0
20260906075629 17 359 0.0 4.8 0.00 0.00 0.00 71 1021.4
20260906074617 17 325 0.0 4.8 0.00 0.00 0.00 72 1021.5
20260906074532 17 355 0.0 4.8 0.00 0.00 0.00 72 1022.1
20260906074111 17 341 0.0 0.0 0.00 0.00 0.00 72 1021.5
20260906073058 17 349 0.0 1.6 0.00 0.00 0.00 72 1021.7
20260906073041 17 342 0.0 1.6 0.00 0.00 0.00 71 1022.3
20260906072552 17 349 0.0 1.6 0.00 0.00 0.00 72 1021.5
20260906071541 17 312 0.0 3.2 0.00 0.00 0.00 72 1021.8
20260906071534 17 322 0.0 3.2 0.00 0.00 0.00 72 1022.5
20260906071035 17 335 0.0 1.6 0.00 0.00 0.00 72 1021.9
20260906070529 17 317 0.0 1.6 0.00 0.00 0.00 71 1021.9
20260906070031 17 312 0.0 1.6 0.00 0.00 0.00 70 1022.4
20260906070022 17 317 0.0 1.6 0.00 0.00 0.00 70 1021.8
20260906065516 17 323 0.0 1.6 0.00 0.00 0.00 70 1021.9
20260906065011 17 314 0.0 1.6 0.00 0.00 0.00 70 1021.9
20260906064536 17 309 0.0 1.6 0.00 0.00 0.00 69 1022.6
20260906064505 17 314 0.0 1.6 0.00 0.00 0.00 69 1022.0
20260906063453 17 314 0.0 1.6 0.00 0.00 0.00 70 1021.9
20260906063032 17 309 0.0 1.6 0.00 0.00 0.00 69 1022.6
20260906062948 17 311 0.0 1.6 0.00 0.00 0.00 70 1021.9
20260906062440 17 9 0.0 0.0 0.00 0.00 0.00 70 1021.9
20260906061934 18 9 0.0 0.0 0.00 0.00 0.00 70 1021.7
20260906061533 17 16 0.0 0.0 0.00 0.00 0.00 69 1022.4
20260906061428 17 9 0.0 0.0 0.00 0.00 0.00 70 1021.8
20260906060922 17 32 0.0 0.0 0.00 0.00 0.00 71 1021.9
20260906060416 17 32 0.0 0.0 0.00 0.00 0.00 72 1021.9
20260906060031 17 38 0.0 1.6 0.00 0.00 0.00 71 1022.6
20260906055910 17 32 0.0 1.6 0.00 0.00 0.00 72 1021.8
20260906055403 17 32 0.0 1.6 0.00 0.00 0.00 72 1021.8
20260906054857 17 24 0.0 1.6 0.00 0.00 0.00 72 1021.9
20260906054533 17 16 0.0 1.6 0.00 0.00 0.00 71 1022.4
20260906054352 17 8 0.0 1.6 0.00 0.00 0.00 72 1021.8
20260906053846 18 323 0.0 1.6 0.00 0.00 0.00 71 1021.8
20260906053016 17 318 0.0 1.6 0.00 0.00 0.00 71 1022.4
20260906052833 18 321 0.0 1.6 0.00 0.00 0.00 72 1021.7
20260906052327 18 313 0.0 1.6 0.00 0.00 0.00 71 1021.8
20260906051530 18 309 0.0 1.6 0.00 0.00 0.00 71 1022.4
20260906050303 18 331 0.0 0.0 0.00 0.00 0.00 72 1021.9
20260906050027 17 325 0.0 0.0 0.00 0.00 0.00 71 1022.6
20260906045252 18 323 0.0 0.0 0.00 0.00 0.00 70 1021.9
20260906044745 18 323 0.0 0.0 0.00 0.00 0.00 69 1021.9
20260906044533 18 317 0.0 0.0 0.00 0.00 0.00 69 1022.6
20260906044240 18 323 0.0 0.0 0.00 0.00 0.00 69 1022.0
20260906043733 19 323 0.0 1.6 0.00 0.00 0.00 68 1022.0
20260906043227 19 323 0.0 1.6 0.00 0.00 0.00 67 1022.0
20260906043034 19 317 0.0 1.6 0.00 0.00 0.00 66 1022.6
20260906042721 19 323 0.0 0.0 0.00 0.00 0.00 66 1022.1
20260906042215 20 323 0.0 0.0 0.00 0.00 0.00 66 1022.1
20260906041710 20 323 0.0 0.0 0.00 0.00 0.00 66 1022.0
20260906041535 20 317 0.0 0.0 0.00 0.00 0.00 65 1022.8
20260906041204 20 323 0.0 0.0 0.00 0.00 0.00 65 1022.0
20260906040656 20 323 0.0 1.6 0.00 0.00 0.00 64 1022.0
20260906040151 20 323 0.0 1.6 0.00 0.00 0.00 65 1022.1
20260906040034 20 317 0.0 1.6 0.00 0.00 0.00 64 1022.8
20260906035646 20 323 0.0 1.6 0.00 0.00 0.00 65 1022.3
20260906035139 20 47 0.0 1.6 0.00 0.00 0.00 64 1022.3
20260906034634 21 276 0.0 1.6 0.00 0.00 0.00 63 1022.3
20260906034535 20 272 0.0 1.6 0.00 0.00 0.00 63 1022.9
20260906033622 20 88 0.0 3.2 0.00 0.00 0.00 63 1022.0
20260906033115 20 83 0.0 3.2 0.00 0.00 0.00 64 1021.9
20260906033030 20 36 0.0 3.2 0.00 0.00 0.00 63 1022.4
20260906032612 20 81 0.0 3.2 0.00 0.00 0.00 64 1021.9
20260906032108 21 39 0.0 4.8 0.00 0.00 0.00 63 1021.8
20260906031608 21 55 0.0 4.8 0.00 0.00 0.00 62 1021.8
20260906031604 21 44 0.0 4.8 0.00 0.00 0.00 62 1022.3
20260906031106 21 53 0.0 4.8 0.00 0.00 0.00 61 1021.8
20260906030605 21 49 1.6 9.7 0.00 0.00 0.00 60 1021.8
20260906030104 21 58 1.6 9.7 0.00 0.00 0.00 60 1021.7
20260906030020 21 68 0.0 11.3 0.00 0.00 0.00 59 1022.2
20260906025602 21 82 0.0 6.4 0.00 0.00 0.00 60 1021.5
20260906025101 21 146 0.0 4.8 0.00 0.00 0.00 60 1021.4
20260906024541 21 108 0.0 6.4 0.00 0.00 0.00 59 1022.0
20260906024100 22 84 1.6 6.4 0.00 0.00 0.00 60 1021.4
20260906023558 22 86 1.6 9.7 0.00 0.00 0.00 59 1021.3
20260906023057 22 89 1.6 11.3 0.00 0.00 0.00 59 1021.3
20260906023029 22 65 0.0 12.9 0.00 0.00 0.00 58 1021.9
20260906022600 22 103 3.2 11.3 0.00 0.00 0.00 58 1021.3
20260906022057 23 53 6.4 14.5 0.00 0.00 0.00 57 1021.2
20260906021559 23 116 9.7 17.7 0.00 0.00 0.00 56 1021.2
20260906021532 23 84 6.4 20.9 0.00 0.00 0.00 55 1021.7
20260906020558 23 117 6.4 20.9 0.00 0.00 0.00 54 1020.9
20260906020057 22 71 1.6 17.7 0.00 0.00 0.00 46 1020.9
20260906020044 22 61 1.6 6.4 0.00 0.00 0.00 42 1021.5
20260906015558 23 350 0.0 0.0 0.00 0.00 0.00 39 1020.6
20260906014547 24 350 0.0 0.0 0.00 0.00 0.00 36 1020.4
20260906014536 24 344 0.0 0.0 0.00 0.00 0.00 35 1021.0
20260906014041 24 350 0.0 0.0 0.00 0.00 0.00 36 1020.3
20260906013535 25 350 0.0 1.6 0.00 0.00 0.00 34 1020.2
20260906013029 25 344 0.0 1.6 0.00 0.00 0.00 33 1021.0
20260906012522 25 340 0.0 1.6 0.00 0.00 0.00 33 1020.3
20260906012017 25 36 0.0 0.0 0.00 0.00 0.00 34 1020.3
20260906011529 25 19 0.0 1.6 0.00 0.00 0.00 34 1021.0
20260906011004 26 30 0.0 3.2 0.00 0.00 0.00 34 1020.3
20260906010459 26 30 0.0 3.2 0.00 0.00 0.00 34 1020.4
20260906010034 26 38 0.0 6.4 0.00 0.00 0.00 33 1021.0
20260906005445 26 84 0.0 6.4 0.00 0.00 0.00 34 1020.4
20260906004541 26 55 0.0 4.8 0.00 0.00 0.00 34 1021.2
20260906003421 27 56 0.0 6.4 0.00 0.00 0.00 32 1020.7
20260906003025 27 60 0.0 14.5 0.00 0.00 0.00 34 1021.3
20260906002915 27 55 3.2 12.9 0.00 0.00 0.00 34 1020.7
20260906002410 27 70 3.2 12.9 0.00 0.00 0.00 32 1020.6
20260906001541 27 98 0.0 6.4 0.00 0.00 0.00 31 1021.1
20260906001359 27 58 1.6 6.4 0.00 0.00 0.00 31 1020.4
20260906000852 27 60 0.0 4.8 0.00 0.00 0.00 29 1020.3
20260906000352 28 0 0.0 1.6 0.00 0.00 0.00 30 1020.4
20260906000034 28 9 0.0 3.2 0.00 0.00 0.00 30 1021.1
20260905235852 28 1 0.0 3.2 0.00 0.00 0.00 30 1020.4
20260905235352 28 326 0.0 3.2 0.00 0.00 0.00 29 1020.4
20260905234851 28 340 0.0 1.6 0.00 0.00 0.00 28 1020.3
20260905234534 27 51 0.0 1.6 0.00 0.00 0.00 29 1020.9
20260905234350 27 45 0.0 1.6 0.00 0.00 0.00 30 1020.3
20260905233347 28 32 1.6 6.4 0.00 0.00 0.00 30 1020.3
20260905233038 27 298 1.6 4.8 0.00 0.00 0.00 27 1021.0
20260905232847 28 46 0.0 4.8 0.00 0.00 0.00 31 1020.3
20260905232349 28 64 0.0 4.8 0.00 0.00 0.00 29 1020.3
20260905231848 28 36 1.6 4.8 0.00 0.00 0.00 31 1020.3
20260905231537 28 327 0.0 4.8 0.00 0.00 0.00 27 1021.0
20260905231347 28 309 0.0 4.8 0.00 0.00 0.00 29 1020.3
20260905230847 28 70 0.0 3.2 0.00 0.00 0.00 28 1020.3
20260905230344 28 37 0.0 4.8 0.00 0.00 0.00 29 1020.2
20260905230033 28 347 0.0 4.8 0.00 0.00 0.00 28 1020.9
20260905225843 28 44 0.0 4.8 0.00 0.00 0.00 30 1020.2
20260905225345 28 42 0.0 3.2 0.00 0.00 0.00 28 1020.2
20260905224842 29 55 1.6 4.8 0.00 0.00 0.00 27 1020.3
20260905224533 29 275 0.0 4.8 0.00 0.00 0.00 26 1021.0
20260905224342 30 278 1.6 4.8 0.00 0.00 0.00 26 1020.4
20260905223843 30 10 1.6 8.0 0.00 0.00 0.00 28 1020.4
20260905223338 29 311 1.6 8.0 0.00 0.00 0.00 26 1020.4
20260905223031 28 305 1.6 8.0 0.00 0.00 0.00 26 1021.1
20260905222325 28 343 1.6 9.7 0.00 0.00 0.00 29 1020.6
20260905221539 28 288 1.6 9.7 0.00 0.00 0.00 28 1021.3
20260905220825 28 319 1.6 8.0 0.00 0.00 0.00 29 1020.6